{"data":{"norad_id":65636,"epoch":"2026-05-24T20:57:37.364832Z","epoch_age_seconds":100068,"freshness":"FRESH","line1":"1 65636U 25210Q   26144.87334913  .00026016  00000+0  77802-3 0  9992","line2":"2 65636  53.1604 312.6148 0000498  63.2841 296.8213 15.34416824 39402","mean_motion":15.34416824,"eccentricity":4.98e-5,"inclination_deg":53.1604,"raan_deg":312.6148,"arg_perigee_deg":63.2841,"mean_anomaly_deg":296.8213,"bstar":0.00077802,"rev_number":3940,"period_min":93.846729094519,"perigee_km":462.31256483674,"apogee_km":462.99390754426,"semimajor_km":6840.7902361905,"source":"CELESTRAK","updated_at":"2026-05-25T13:38:20.883827Z"}}